Regional Weather Roundup
Issued by NWS Wilmington, NC

Home | Current Version | Previous Version | Text Only | Print | Product List | Glossary On
Versions: 1 2 3 4 5 6 7 8 9 10 11 12 13 14 15 16 17 18 19 20 21 22 23 24 25 26 27
000
ASUS42 KILM 221813
RWRILM
RWRILM
REGIONAL HOURLY WEATHER ROUNDUP
NATIONAL WEATHER SERVICE WILMINGTON NC
200 PM EDT SUN APR 22 2018

NOTE: "FAIR" INDICATES FEW OR NO CLOUDS BELOW 12,000 FEET WITH NO
SIGNIFICANT WEATHER AND/OR OBSTRUCTIONS TO VISIBILITY.

...............WFO WILMINGTON COUNTY WARNING AREA...............

......COASTAL NC AND SC COUNTIES......

CITY           SKY/WX    TMP DP  RH WIND       PRES   REMARKS
WILMINGTON     FAIR      69  47  45 SE12G20   30.35F
N MYRTLE BEACH PTSUNNY   69  53  56 E15G23    30.32F
MYRTLE BEACH   FAIR      69  54  58 E15       30.33F

......INLAND NC AND SC COUNTIES.......

CITY           SKY/WX    TMP DP  RH WIND       PRES   REMARKS
LUMBERTON      PTSUNNY   73  43  33 S6        30.30F
ELIZABETHTOWN  PTSUNNY   71  42  35 MISG      30.32F
WHITEVILLE     CLOUDY    71  49  46 SE6       30.31F
FLORENCE       FAIR      73  48  41 SE8G21    30.29F
DARLINGTON     FAIR      70  49  47 E7        30.30F
KINGSTREE      PTSUNNY   70  46  43 E10       30.29S
HARTSVILLE     PTSUNNY   70  48  46 SE7       30.29F
BENNETTSVILLE  PTSUNNY   73  46  38 SE7       30.29F
CONWAY         FAIR      70  50  49 SE7       30.31F
GEORGETOWN     FAIR      72  50  46 E10G17    30.31F
MARION         PTSUNNY   72  46  40 SE8       30.30F

....................REST OF NORTH CAROLINA......................

.........EASTERN NC.........

CITY           SKY/WX    TMP DP  RH WIND       PRES   REMARKS
CAPE HATTERAS  FAIR      63  36  36 NE10      30.38F
JACKSONVILLE   FAIR      69  42  37 SE9       30.35F
MOREHEAD CITY  FAIR      67  38  34 E13G18    30.37F
KENANSVILLE    FAIR      70  37  30 SE6       30.34F
NEW BERN       FAIR      66  37  34 E8        30.37F
ELIZABETH CITY FAIR      65  35  33 SE7       30.40S

.........CENTRAL NC.........

CITY           SKY/WX    TMP DP  RH WIND       PRES   REMARKS
RALEIGH DURHAM CLOUDY    68  44  42 S6        30.34F
ROCKY MOUNT    FAIR      69  39  33 VRB5      30.35F
ROANOKE RAPIDS NOT AVBL
FAYETTEVILLE   FAIR      72  41  32 S10       30.32F
HOFFMAN        FAIR      71  46  39 SE8       30.31F

.........WESTERN NC.........

CITY           SKY/WX    TMP DP  RH WIND       PRES   REMARKS
CHARLOTTE      CLOUDY    68  39  34 S10       30.30F
GREENSBORO     CLOUDY    65  43  44 S5        30.32F
HICKORY        NOT AVBL
BOONE          NOT AVBL
ASHEVILLE      NOT AVBL

.....................REST OF SOUTH CAROLINA.....................

.........EASTERN SC.........

CITY           SKY/WX    TMP DP  RH WIND       PRES   REMARKS
CHARLESTON     FAIR      74  52  46 SE15G23   30.27F
BEAUFORT MCAS  CLOUDY    71  55  56 E17       30.25F
HILTON HEAD    CLOUDY    68  59  73 E10       30.26F

.........CENTRAL SC.........

CITY           SKY/WX    TMP DP  RH WIND       PRES   REMARKS
COLUMBIA       CLOUDY    72  52  49 E13       30.26F
ORANGEBURG     CLOUDY    69  52  54 SE8       30.27F
SUMTER SHAW    CLOUDY    73  49  41 SE10      30.26F

.........WESTERN SC.........

CITY           SKY/WX    TMP DP  RH WIND       PRES   REMARKS
GREENVILLE     NOT AVBL
ROCK HILL      FAIR      68  41  37 E7        30.29F
ANDERSON       CLOUDY    66  52  60 E9        30.25F
CLEMSON        NOT AVBL
GREENWOOD      CLOUDY    67  52  58 VRB7      30.28F


...................COASTAL AND OFFSHORE REPORTS..................

................LOCAL PIERS AND NC RESERVE................


STATION/POSITION TIME  SKY/WX   TEMP    WIND        PRES    VSBY
                                AIR SEA DIR/SP/G
                 (UTC)          (F)     (DEG/KT/KT) (MB)    (MI)
JOHNY MRCER PIER 1748            62 64   80/ 16/ 17 1028.1F
NC RESRV MASNBRO NOT AVBL
OCEAN CREST PIER NOT AVBL
SPRINGMAID  PIER 1748                               1029.9F


................COASTAL AND OFFSHORE BUOYS................


STATION/POSITION TIME  SKY/WX   TEMP    WIND        PRES    VSBY
                                AIR SEA DIR/SP/G
                 (UTC)          (F)     (DEG/KT/KT) (MB)    (MI)
DIMNDSHOAL 41025 1800            60 74   30/ 12/ 16 1029.0
CAPE LOOKOUT     1800                    60/ 13/ 15 1028.6F
ONSLOW BAY 41036 NOT AVBL
ONSLOW BAY 41064 1708            63 65   80/ 14/ 17 1028.4F
ONSLOW BAY 41159 1800               65                N/A
WVE H/P(F/S)=  4/ 4

MASNBO INL 41110 1800               60                N/A
WVE H/P(F/S)=  3/ 4

WILM HARBR 41108 1800               61                N/A
WVE H/P(F/S)=  3/ 4

27SE WRITB 41037 1708            64 65   90/ 16/ 21 1027.8F
FRYING PAN 41013 1800            67 70  110/ 14/ 16 1026.7
SUNST NRSH 41024 1708            64 63  100/ 12/ 17 1026.8F
CAPRS NRSH 41029 1708            65 63   80/  6/ 10 1026.2F
EDISTO     41004 1800            69 67  100/ 10/ 12 1025.2


..........OFFSHORE BUOYS BEYOND 100 NM OFFSHORE...........
.....IN A TRIANGLE---HAT TO BERMUDA TO BAHAMAS TO HAT.....


STATION/POSITION TIME  SKY/WX   TEMP    WIND        PRES    VSBY
                                AIR SEA DIR/SP/G
                 (UTC)          (F)     (DEG/KT/KT) (MB)    (MI)
150E HAT   41001 NOT AVBL
W BERMUDA  41048 1800               70   50/  8/ 10 1027.0
ATLANTIC S 41049 1750            75 77  100/  4/  6 1022.1F
WVE H/P(F/S)=  6/ 9 SWL H/P/D(F/S/D)=  5/340/ 9

E BAHAMAS  41046 1800               79   90/ 14/ 17 1020.2
NE BAHAMAS 41047 1750                    70/ 17/ 21 1023.4S
WVE H/P(F/S)=  7/ 9 SWL H/P/D(F/S/D)=  3/ 60/ 9

120E CANVRL41010 1750            73 76   80/ 19/ 23 1022.2F
WVE H/P(F/S)=  7/ 7 SWL H/P/D(F/S/D)=  2/120/13


END




USA.gov is the U.S. government's official web portal to all federal, state and local government web resources and services.